Location: Dürabuch
(48.2640°N, 11.2185°E)
Time: 03:34:56
(UTC+00:00)

CZ-2C R/B - Pass Details

Date: 23 May 2024
Orbit: 703 x 904 km, 98.2° (Epoch: 13 June)

Event Time Altitude Azimuth Distance (km) Brightness Sun altitude
Rises 01:35:14 0° 14° (NNE) 3,538 7.8 -14.0°
Reaches altitude 10° 01:37:40 10° 15° (NNE) 2,596 6.9 -13.8°
Maximum altitude 01:43:31 85° 104° (ESE) 909 3.4 -13.2°
Enters shadow 01:48:27 14° 193° (SSW) 2,239 4.8 -12.7°
